Date String (YYYY-MM-DD hh:mm:ss) UTC,Instrument flags,Ambient pressure (hPa),Sample flow (lpm),Bypass flow (lpm),Sample temperature (°C),Ambient temperature (°C),ASC tube jacket temperature (°C),LED temperature (°C),Box temperature (°C),Sample RH (%),Span deviation,Mass concentration (μg/m³),Mass concentration (μg/m³),Mass concentration (μg/m³)
DateTimeUTC,F1_M11,P_M11,Q1_M11,Q2_M11,T1_M11,T2_M11,T3_M11,T4_M11,T5_M11,U1_M11,ZSPAN_M11,X0_M11,X2_M11,X1_M11
2022-02-14 14:00:00,,0827.8,5.01,0.00,22.2,21.4,00.0,31.3,23.9,08.9,0000.0,0009.30,0004.34,0003.77
2022-02-14 14:01:00,,0827.8,4.99,0.00,22.2,21.4,00.0,31.3,23.9,08.9,0000.0,0009.19,0004.41,0003.81
2022-02-14 14:02:00,,0827.9,5.00,0.00,22.2,21.4,00.0,31.2,24.0,08.9,0000.0,0009.60,0004.45,0003.83
2022-02-14 14:03:00,,0827.9,4.99,0.00,22.2,21.4,00.0,31.2,24.0,08.8,0000.0,0010.23,0004.47,0003.84
2022-02-14 14:04:00,,0827.8,5.01,0.00,22.2,21.4,00.0,31.2,24.0,08.8,0000.0,0010.32,0004.49,0003.85
2022-02-14 14:05:00,,0827.8,5.01,0.00,22.2,21.4,00.0,31.2,24.0,08.9,0000.0,0010.40,0004.53,0003.87
2022-02-14 14:06:00,,0827.8,4.99,0.00,22.2,21.4,00.0,31.2,24.0,08.9,0000.0,0010.43,0004.54,0003.89
2022-02-14 14:07:00,,0827.8,5.01,0.00,22.2,21.4,00.0,31.2,24.0,08.9,0000.0,0010.97,0004.56,0003.92
2022-02-14 14:08:00,,0827.9,4.99,0.00,22.2,21.4,00.0,31.2,24.0,08.9,0000.0,0010.81,0004.52,0003.91
2022-02-14 14:09:00,,0827.9,4.99,0.00,22.2,21.4,00.0,31.2,24.0,08.8,0000.0,0009.70,0004.50,0003.89
2022-02-14 14:10:00,,0827.9,5.01,0.00,22.2,21.4,00.0,31.2,24.0,08.7,0000.0,0009.51,0004.48,0003.87
2022-02-14 14:11:00,,0827.8,4.98,0.00,22.2,21.4,00.0,31.2,24.0,08.7,0000.0,0009.33,0004.39,0003.82
2022-02-14 14:12:00,,0828.0,5.02,0.00,22.2,21.5,00.0,31.2,24.0,08.8,0000.0,0009.10,0004.29,0003.76
2022-02-14 14:13:00,,0827.8,5.00,0.00,22.3,21.9,00.0,31.2,24.1,08.7,0000.0,0008.64,0004.23,0003.71
2022-02-14 14:14:00,,0827.8,4.99,0.00,22.4,22.7,00.0,31.3,24.3,08.8,0000.0,0008.13,0004.20,0003.69
2022-02-14 14:15:00,,0827.9,5.01,0.00,22.5,23.2,00.0,31.3,24.5,08.7,0000.0,0007.99,0004.15,0003.66
2022-02-14 14:16:00,,0827.8,5.00,0.00,22.6,23.0,00.0,31.3,24.6,08.7,0000.0,0007.85,0004.09,0003.64
2022-02-14 14:17:00,,0827.8,5.01,0.00,22.6,22.8,00.0,31.3,24.6,08.7,0000.0,0007.85,0004.09,0003.64
2022-02-14 14:18:00,,0827.8,5.00,0.00,22.6,22.6,00.0,31.4,24.5,08.8,0000.0,0007.12,0004.06,0003.63
2022-02-14 14:19:00,,0827.8,4.99,0.00,22.6,22.5,00.0,31.4,24.5,08.8,0000.0,0006.85,0004.07,0003.63
2022-02-14 14:20:00,,0827.8,4.99,0.00,22.6,22.4,00.0,31.4,24.5,08.8,0000.0,0006.88,0004.07,0003.63
2022-02-14 14:21:00,,0827.8,5.00,0.00,22.6,22.3,00.0,31.4,24.5,08.8,0000.0,0006.86,0004.06,0003.63
2022-02-14 14:22:00,,0827.8,5.02,0.00,22.6,22.2,00.0,31.4,24.5,08.8,0000.0,0007.10,0004.10,0003.64
2022-02-14 14:23:00,,0827.8,4.98,0.00,22.6,22.1,00.0,31.4,24.4,08.8,0000.0,0007.20,0004.13,0003.66
2022-02-14 14:24:00,,0827.8,5.01,0.00,22.6,22.1,00.0,31.4,24.4,08.8,0000.0,0007.21,0004.16,0003.69
2022-02-14 14:25:00,,0827.8,5.01,0.00,22.6,22.1,00.0,31.4,24.4,08.7,0000.0,0007.07,0004.16,0003.70
2022-02-14 14:26:00,,0827.8,4.99,0.00,22.6,22.0,00.0,31.5,24.4,08.7,0000.0,0007.12,0004.18,0003.71
2022-02-14 14:27:00,,0827.8,5.01,0.00,22.6,22.0,00.0,31.5,24.4,08.8,0000.0,0007.13,0004.19,0003.71
2022-02-14 14:28:00,,0827.8,5.00,0.00,22.6,22.0,00.0,31.5,24.4,08.7,0000.0,0007.39,0004.18,0003.70
2022-02-14 14:29:00,,0827.8,4.99,0.00,22.6,21.9,00.0,31.5,24.4,08.7,0000.0,0007.78,0004.18,0003.69
2022-02-14 14:30:00,,0827.8,5.01,0.00,22.6,21.9,00.0,31.5,24.4,08.6,0000.0,0007.67,0004.15,0003.68
2022-02-14 14:31:00,,0827.8,4.98,0.00,22.6,21.9,00.0,31.5,24.4,08.9,0000.0,0007.83,0004.16,0003.68
2022-02-14 14:32:00,,0827.9,4.99,0.00,22.6,21.9,00.0,31.5,24.4,08.7,0000.0,0007.96,0004.16,0003.70
2022-02-14 14:33:00,,0827.8,5.03,0.00,22.6,21.9,00.0,31.5,24.3,08.7,0000.0,0007.79,0004.12,0003.71
2022-02-14 14:34:00,,0827.8,4.99,0.00,22.6,21.9,00.0,31.5,24.2,08.9,0000.0,0007.76,0004.12,0003.72
2022-02-14 14:35:00,,0827.6,5.00,0.00,22.5,21.8,00.0,31.5,24.2,08.8,0000.0,0007.75,0004.13,0003.74
2022-02-14 14:36:00,,0827.7,5.01,0.00,22.5,21.8,00.0,31.5,24.3,08.6,0000.0,0007.81,0004.15,0003.75
2022-02-14 14:37:00,,0827.7,4.98,0.00,22.5,21.8,00.0,31.5,24.3,08.6,0000.0,0007.76,0004.14,0003.75
2022-02-14 14:38:00,,0827.6,5.02,0.00,22.5,21.8,00.0,31.5,24.2,08.5,0000.0,0007.76,0004.16,0003.76
2022-02-14 14:39:00,,0827.6,4.99,0.00,22.5,21.8,00.0,31.5,24.2,08.5,0000.0,0007.68,0004.18,0003.77
2022-02-14 14:40:00,,0827.6,4.99,0.00,22.5,21.8,00.0,31.5,24.2,08.5,0000.0,0007.29,0004.18,0003.77
2022-02-14 14:41:00,,0827.6,5.01,0.00,22.5,21.8,00.0,31.5,24.3,08.4,0000.0,0007.78,0004.21,0003.79
2022-02-14 14:42:00,,0827.6,4.98,0.00,22.5,21.8,00.0,31.5,24.3,08.4,0000.0,0007.77,0004.23,0003.80
2022-02-14 14:43:00,,0827.7,5.02,0.00,22.5,21.8,00.0,31.5,24.3,08.4,0000.0,0007.68,0004.24,0003.79
2022-02-14 14:44:00,,0827.6,5.00,0.00,22.5,21.8,00.0,31.5,24.3,08.4,0000.0,0007.77,0004.27,0003.78
2022-02-14 14:45:00,,0827.6,5.00,0.00,22.5,21.8,00.0,31.5,24.3,08.4,0000.0,0008.18,0004.27,0003.77
2022-02-14 14:46:00,,0827.6,4.99,0.00,22.5,21.8,00.0,31.5,24.3,08.3,0000.0,0008.67,0004.26,0003.74
2022-02-14 14:47:00,,0827.6,5.02,0.00,22.5,21.8,00.0,31.5,24.3,08.3,0000.0,0008.60,0004.22,0003.72
2022-02-14 14:48:00,,0827.5,4.99,0.00,22.5,21.8,00.0,31.5,24.3,08.3,0000.0,0008.72,0004.22,0003.72
2022-02-14 14:49:00,,0827.5,4.99,0.00,22.6,21.8,00.0,31.5,24.3,08.2,0000.0,0008.70,0004.17,0003.69
2022-02-14 14:50:00,,0827.5,5.00,0.00,22.6,21.8,00.0,31.5,24.3,08.3,0000.0,0008.64,0004.14,0003.67
2022-02-14 14:51:00,,0827.5,5.00,0.00,22.6,21.8,00.0,31.5,24.3,08.9,0000.0,0009.46,0004.15,0003.66
2022-02-14 14:52:00,,0827.5,4.99,0.00,22.6,21.8,00.0,31.5,24.3,08.6,0000.0,0009.33,0004.13,0003.65
2022-02-14 14:53:00,,0827.5,5.01,0.00,22.6,21.8,00.0,31.5,24.3,09.4,0000.0,0009.57,0004.13,0003.64
2022-02-14 14:54:00,,0827.5,4.99,0.00,22.6,21.8,00.0,31.5,24.3,09.1,0000.0,0009.60,0004.12,0003.64
2022-02-14 14:55:00,,0827.4,5.02,0.00,22.6,21.8,00.0,31.5,24.3,08.8,0000.0,0009.68,0004.15,0003.65
2022-02-14 14:56:00,,0827.4,4.99,0.00,22.6,21.8,00.0,31.5,24.3,08.4,0000.0,0009.24,0004.16,0003.65
2022-02-14 14:57:00,,0827.4,4.99,0.00,22.6,21.8,00.0,31.5,24.4,08.5,0000.0,0008.78,0004.15,0003.64
2022-02-14 14:58:00,,0827.4,5.00,0.00,22.6,21.9,00.0,31.5,24.4,08.2,0000.0,0008.82,0004.14,0003.63
2022-02-14 14:59:00,,0827.5,5.00,0.00,22.6,21.9,00.0,31.5,24.4,08.2,0000.0,0008.80,0004.16,0003.62
